397  
NZUS93 KARX 272110  
HRRWXR  
 
CURRENT HOURLY OBSERVATIONS ACROSS  
MUCH OF THE UPPER MISSISSIPPI VALLEY  
NATIONAL WEATHER SERVICE LA CROSSE WI  
400 PM CDT WED OCT 27 2021  
 
   
..SOUTHEAST MINNESOTA
 
 
 
CITY SKY/WX TMP DP RH WIND PRES REMARKS  
ROCHESTER CLOUDY 53 39 59 SE23G31 29.75F  
WINONA CLOUDY 55 41 58 SE10 29.78F  
AUSTIN CLOUDY 55 41 58 SE16 29.73S  
ALBERT LEA DRIZZLE 52 45 76 SE9 29.71F  
DODGE CENTER N/A 54 36 50 SE17 29.74R  
PRESTON CLOUDY 53 38 56 SE13 29.78R  
OWATONNA LGT RAIN 54 43 66 SE12 29.73S  
FARIBAULT CLOUDY 54 45 71 SE16 29.74R  

 
   
..ELSEWHERE IN MINNESOTA
 
 
 
CITY SKY/WX TMP DP RH WIND PRES REMARKS  
MINNEAPOLIS LGT RAIN 52 43 71 SE13 29.73F  
INTNL FALLS CLOUDY 45 40 82 SE6 29.78R  
DULUTH LGT RAIN 44 41 89 E13 29.81F  
RED WING CLOUDY 54 37 54 SE15G21 29.75F  
REDWOOD FALLS LGT RAIN 47 47 100 SE13 29.69S FOG  
MANKATO CLOUDY 53 43 68 SE18 29.71S  
WORTHINGTON RAIN 47 47 100 SE9 29.67R FOG  
FAIRMONT LGT RAIN 48 46 93 SE18 29.68F  

 
   
..SOUTHWEST WISCONSIN
 
 
 
CITY SKY/WX TMP DP RH WIND PRES REMARKS  
LA CROSSE CLOUDY 59 37 44 SE8 29.79F  
PRAIRIE DU CHI CLOUDY 55 38 52 E13 29.81R  
BOSCOBEL PTSUNNY 59 36 42 E9G18 29.81F  
LONE ROCK PTSUNNY 58 36 43 E13G20 29.83F  
PLATTEVILLE PTSUNNY 56 40 54 E14G22 29.81F  
FORT MC COY PTSUNNY 59 36 42 CALM 29.82F  
CAMP DOUGLAS PTSUNNY 57 36 44 SE15G23 29.83F  
MAUSTON-NEW LI PTCLDY 58 39 49 SE7 29.83F  
VIROQUA CLOUDY 55 38 53 SE13G20 29.80F  
WIS DELLS MOSUNNY 56 38 51 SE13 29.86F  

 
   
..ELSEWHERE IN WISCONSIN
 
 
 
CITY SKY/WX TMP DP RH WIND PRES REMARKS  
MILWAUKEE PTSUNNY 52 41 66 SE14 29.93F  
MADISON PTSUNNY 56 38 50 SE14 29.88S  
GREEN BAY CLOUDY 51 40 65 SE9 29.95F  
EAU CLAIRE CLOUDY 56 37 49 SE12G21 29.80F  
BLACK RVR FLS CLOUDY 60 35 39 SE10G17 29.81F  
MEDFORD CLOUDY 55 37 51 SE9G16 29.86R  
WAUSAU MOSUNNY 57 39 51 E9 29.86F  
WIS RAPIDS MOSUNNY 58 40 51 SE12G20 29.88S  
MARSHFIELD PTSUNNY 56 38 50 SE16G22 29.86S  
RICE LAKE CLOUDY 54 41 60 E9 29.82F  

 
   
..NORTHEAST IOWA
 
 
 
CITY SKY/WX TMP DP RH WIND PRES REMARKS  
WATERLOO CLOUDY 56 41 57 E17 29.72F  
DUBUQUE CLOUDY 55 40 56 SE14 29.82F  
DECORAH CLOUDY 54 41 62 SE12G24 29.77R  
MASON CITY CLOUDY 50 43 77 SE15 29.71F  
CHARLES CITY CLOUDY 54 41 62 SE15G21 29.73F  
OELWEIN CLOUDY 55 41 58 SE15G21 29.75F  

 
   
..ELSEWHERE IN IOWA
 
 
 
CITY SKY/WX TMP DP RH WIND PRES REMARKS  
DES MOINES CLOUDY 53 45 74 SE8 29.65F  
IOWA CITY CLOUDY 58 40 51 SE13G22 29.76F  
FORT DODGE CLOUDY 49 45 86 SE9 29.67F  
MARSHALLTOWN CLOUDY 54 46 74 E16 29.68F  
CEDAR RAPIDS CLOUDY 56 41 57 SE16G25 29.73F  

 
   
..NORTHERN ILLINOIS
 
 
 
CITY SKY/WX TMP DP RH WIND PRES REMARKS  
CHICAGO-OHARE PTSUNNY 55 38 52 E15 29.89F  
CHICAGO-MIDWAY PTSUNNY 56 36 47 E15 29.89F  
MOLINE PTSUNNY 59 43 55 E16G25 29.78F  
ROCKFORD PTSUNNY 57 37 47 SE9 29.87F  
PEORIA PTSUNNY 61 42 49 E12G24 29.80F  

 
 
NOTE: "FAIR" INDICATES FEW OR NO CLOUDS BELOW 12,000 FEET WITH NO  
SIGNIFICANT WEATHER AND/OR OBSTRUCTIONS TO VISIBILITY. WIND  
SPEEDS ARE IN MILES-PER-HOUR.  
 
 
CLICK HERE TO GO TO PREVIOUS BULLETINS.

The Nexlab WI Page
The Nexlab IA Page
The Nexlab MN Page Main Text Page